Location: *
(35.8942°N, 23.3025°E)
Time: 23:51:16
(UTC+00:00)

N. Korean satellite - Pass Details

Date: 06 December 2022
Orbit: 407 x 442 km, 97.3° (Epoch: 05 February)

Event Time Altitude Azimuth Distance (km) Brightness Sun altitude
Rises 03:44:42 0° 10° (N) 2,501 10.1 -19.4°
Reaches altitude 10° 03:46:46 10° 9° (N) 1,614 9.1 -19.0°
Maximum altitude 03:50:14 80° 283° (WNW) 467 6.3 -18.3°
Drops below altitude 10° 03:53:36 10° 196° (SSW) 1,571 9.1 -17.6°
Sets 03:55:36 0° 195° (SSW) 2,427 10.1 -17.2°
